TimeAKDT,TemperatureF,Dew PointF,Humidity,Sea Level PressureIn,VisibilityMPH,Wind Direction,Wind SpeedMPH,Gust SpeedMPH,PrecipitationIn,Events,Conditions,WindDirDegrees,DateUTC
12:16 AM,48.2,44.6,87,29.63,10.0,ESE,3.5,-,N/A,,Overcast,110,2012-09-10 08:16:00
12:36 AM,48.2,44.6,87,29.63,10.0,East,3.5,-,N/A,,Overcast,80,2012-09-10 08:36:00
12:56 AM,48.2,44.6,87,29.64,10.0,East,3.5,-,N/A,,Overcast,100,2012-09-10 08:56:00
1:16 AM,48.2,44.6,87,29.65,10.0,Calm,Calm,-,N/A,,Overcast,0,2012-09-10 09:16:00
1:36 AM,48.2,44.6,87,29.66,10.0,Calm,Calm,-,N/A,,Overcast,0,2012-09-10 09:36:00
1:56 AM,48.2,44.6,87,29.67,10.0,Calm,Calm,-,N/A,,Overcast,0,2012-09-10 09:56:00
2:16 AM,48.2,44.6,87,29.67,10.0,Calm,Calm,-,N/A,,Overcast,0,2012-09-10 10:16:00
2:36 AM,48.2,44.6,87,29.68,10.0,Calm,Calm,-,N/A,,Overcast,0,2012-09-10 10:36:00
2:56 AM,48.2,44.6,87,29.68,9.0,Calm,Calm,-,N/A,,Overcast,0,2012-09-10 10:56:00
3:16 AM,48.2,44.6,87,29.69,10.0,Calm,Calm,-,N/A,,Overcast,0,2012-09-10 11:16:00
3:36 AM,48.2,42.8,82,29.70,10.0,Calm,Calm,-,N/A,,Mostly Cloudy,0,2012-09-10 11:36:00
3:56 AM,46.4,42.8,87,29.70,10.0,Calm,Calm,-,N/A,,Overcast,0,2012-09-10 11:56:00
4:16 AM,46.4,42.8,87,29.70,10.0,Calm,Calm,-,N/A,,Overcast,0,2012-09-10 12:16:00
4:36 AM,46.4,42.8,87,29.71,10.0,Calm,Calm,-,N/A,,Overcast,0,2012-09-10 12:36:00
4:56 AM,46.4,42.8,87,29.72,10.0,Calm,Calm,-,N/A,,Overcast,0,2012-09-10 12:56:00
5:16 AM,48.2,42.8,82,29.72,10.0,Calm,Calm,-,N/A,,Overcast,0,2012-09-10 13:16:00
5:36 AM,48.2,42.8,82,29.73,10.0,Calm,Calm,-,N/A,,Overcast,0,2012-09-10 13:36:00
5:56 AM,48.2,42.8,82,29.74,10.0,Calm,Calm,-,N/A,,Overcast,0,2012-09-10 13:56:00
6:16 AM,46.4,42.8,87,29.74,10.0,Calm,Calm,-,N/A,,Overcast,0,2012-09-10 14:16:00
6:36 AM,46.4,42.8,87,29.75,10.0,Calm,Calm,-,N/A,,Overcast,0,2012-09-10 14:36:00
6:56 AM,46.4,42.8,87,29.76,10.0,Calm,Calm,-,N/A,,Overcast,0,2012-09-10 14:56:00
7:16 AM,48.2,44.6,87,29.76,6.0,Calm,Calm,-,N/A,,Overcast,0,2012-09-10 15:16:00
7:36 AM,48.2,42.8,82,29.77,10.0,Calm,Calm,-,N/A,,Overcast,0,2012-09-10 15:36:00
7:56 AM,48.2,44.6,87,29.78,10.0,Calm,Calm,-,N/A,,Overcast,0,2012-09-10 15:56:00
8:16 AM,48.2,44.6,87,29.79,10.0,Calm,Calm,-,N/A,,Overcast,0,2012-09-10 16:16:00
8:36 AM,48.2,44.6,87,29.79,10.0,East,3.5,-,N/A,,Overcast,100,2012-09-10 16:36:00
8:56 AM,48.2,44.6,87,29.80,10.0,Calm,Calm,-,N/A,,Overcast,0,2012-09-10 16:56:00
9:16 AM,48.2,44.6,87,29.81,10.0,Calm,Calm,-,N/A,,Overcast,0,2012-09-10 17:16:00
9:36 AM,48.2,44.6,87,29.81,10.0,East,4.6,-,N/A,,Overcast,90,2012-09-10 17:36:00
9:56 AM,50.0,44.6,82,29.82,10.0,SE,5.8,-,N/A,,Mostly Cloudy,130,2012-09-10 17:56:00
10:16 AM,50.0,44.6,82,29.83,10.0,SSE,4.6,-,N/A,,Overcast,150,2012-09-10 18:16:00
10:36 AM,50.0,44.6,82,29.83,10.0,SE,6.9,-,N/A,,Overcast,140,2012-09-10 18:36:00
10:56 AM,51.8,44.6,76,29.84,10.0,SE,6.9,-,N/A,,Overcast,140,2012-09-10 18:56:00
11:16 AM,51.8,44.6,76,29.85,10.0,SE,5.8,-,N/A,,Overcast,140,2012-09-10 19:16:00
11:36 AM,51.8,44.6,76,29.85,10.0,SSW,3.5,-,N/A,,Overcast,200,2012-09-10 19:36:00
11:56 AM,51.8,44.6,76,29.86,10.0,SE,4.6,-,N/A,,Overcast,140,2012-09-10 19:56:00
12:16 PM,53.6,44.6,72,29.86,10.0,SE,4.6,-,N/A,,Overcast,140,2012-09-10 20:16:00
12:36 PM,53.6,44.6,72,29.86,10.0,ESE,5.8,-,N/A,,Overcast,120,2012-09-10 20:36:00
12:56 PM,55.4,42.8,63,29.86,10.0,SE,3.5,-,N/A,,Overcast,140,2012-09-10 20:56:00
1:16 PM,55.4,44.6,67,29.86,10.0,SE,10.4,-,N/A,,Mostly Cloudy,130,2012-09-10 21:16:00
1:36 PM,55.4,42.8,63,29.87,10.0,SE,8.1,-,N/A,,Scattered Clouds,130,2012-09-10 21:36:00
1:56 PM,55.4,42.8,63,29.87,10.0,SE,8.1,-,N/A,,Partly Cloudy,130,2012-09-10 21:56:00
2:16 PM,55.4,42.8,63,29.87,10.0,SE,8.1,-,N/A,,Partly Cloudy,130,2012-09-10 22:16:00
2:36 PM,57.2,44.6,63,29.87,10.0,SE,9.2,-,N/A,,Partly Cloudy,140,2012-09-10 22:36:00
2:56 PM,55.4,42.8,63,29.87,10.0,SE,9.2,-,N/A,,Partly Cloudy,130,2012-09-10 22:56:00
3:16 PM,53.6,42.8,67,29.87,10.0,ESE,9.2,-,N/A,,Scattered Clouds,120,2012-09-10 23:16:00
3:36 PM,53.6,42.8,67,29.87,10.0,SE,11.5,-,N/A,,Mostly Cloudy,130,2012-09-10 23:36:00
3:56 PM,53.6,42.8,67,29.87,10.0,ESE,5.8,-,N/A,,Overcast,110,2012-09-10 23:56:00
4:16 PM,53.6,44.6,72,29.88,10.0,Calm,Calm,-,N/A,,Overcast,0,2012-09-11 00:16:00
4:36 PM,51.8,44.6,76,29.88,10.0,NW,10.4,-,N/A,,Overcast,320,2012-09-11 00:36:00
4:56 PM,50.0,44.6,82,29.89,10.0,North,4.6,-,N/A,,Overcast,360,2012-09-11 00:56:00
5:16 PM,50.0,44.6,82,29.89,10.0,North,3.5,-,N/A,,Overcast,360,2012-09-11 01:16:00
5:36 PM,50.0,44.6,82,29.89,10.0,North,4.6,-,N/A,,Overcast,360,2012-09-11 01:36:00
5:56 PM,50.0,44.6,82,29.89,10.0,NE,5.8,-,N/A,,Overcast,40,2012-09-11 01:56:00
6:16 PM,48.2,42.8,82,29.89,10.0,North,10.4,-,N/A,,Overcast,10,2012-09-11 02:16:00
6:36 PM,48.2,44.6,87,29.91,8.0,West,5.8,-,N/A,,Overcast,280,2012-09-11 02:36:00
6:56 PM,48.2,41.0,76,29.90,9.0,ENE,8.1,-,N/A,,Overcast,70,2012-09-11 02:56:00
7:16 PM,48.2,42.8,82,29.90,10.0,East,6.9,-,N/A,,Mostly Cloudy,80,2012-09-11 03:16:00
7:36 PM,48.2,42.8,82,29.91,10.0,ENE,4.6,-,N/A,,Mostly Cloudy,60,2012-09-11 03:36:00
7:56 PM,48.2,42.8,82,29.91,10.0,Calm,Calm,-,N/A,,Overcast,0,2012-09-11 03:56:00
8:16 PM,46.4,42.8,87,29.92,10.0,North,3.5,-,N/A,,Overcast,360,2012-09-11 04:16:00
8:36 PM,46.4,42.8,87,29.92,10.0,Calm,Calm,-,N/A,,Mostly Cloudy,0,2012-09-11 04:36:00
8:56 PM,46.4,42.8,87,29.93,10.0,WNW,4.6,-,N/A,,Overcast,300,2012-09-11 04:56:00
9:16 PM,46.4,42.8,87,29.93,10.0,NNW,3.5,-,N/A,,Mostly Cloudy,340,2012-09-11 05:16:00
9:36 PM,46.4,42.8,87,29.94,10.0,Calm,Calm,-,N/A,,Mostly Cloudy,0,2012-09-11 05:36:00
9:56 PM,46.4,42.8,87,29.94,10.0,Calm,Calm,-,N/A,,Overcast,0,2012-09-11 05:56:00
10:16 PM,46.4,42.8,87,29.95,10.0,Calm,Calm,-,N/A,,Overcast,0,2012-09-11 06:16:00
10:36 PM,46.4,42.8,87,29.95,10.0,Calm,Calm,-,N/A,,Overcast,0,2012-09-11 06:36:00
10:56 PM,46.4,42.8,87,29.95,10.0,North,3.5,-,N/A,,Overcast,360,2012-09-11 06:56:00
11:16 PM,46.4,42.8,87,29.96,10.0,NNW,5.8,-,N/A,,Overcast,340,2012-09-11 07:16:00
11:36 PM,46.4,42.8,87,29.95,10.0,Calm,Calm,-,N/A,,Overcast,0,2012-09-11 07:36:00
11:56 PM,46.4,42.8,87,29.96,10.0,Calm,Calm,-,N/A,,Overcast,0,2012-09-11 07:56:00